Find OneWeb SL0158

NORAD ID: 48054 Int'l Des: 2021-025 Owner: ONEWEBN Country: UK Constellation: oneweb operational
別名: ONEWEB-0158 spacetrack, celestrak
LEOCIRCULARPOLARONEWEB_TYPE

現在のビュー

3D地球を読み込み中...

About OneWeb SL0158

OneWeb SL0158 (NORAD 48054) is a oneweb constellation satellite launched Mar 25, 2021 by ONEWEBN of UK. It operates in LEO, CIRCULAR, POLAR, ONEWEB_TYPE orbit with a mass of 148.00 kg.

次回通過

Passes for default location (London). Set your location on the main map for personalized predictions.

高度履歴

Loading altitude history...

軌道要素

1 48054U 21025N 26265.10239641 .00000268 00000-0 69884-3 0 9992
2 48054 87.8921 300.9395 0002037 86.6529 273.4833 13.13471052266354
Epoch: Sep 22, 2026 • Age: 16 hours

現在のステータス

高度 1219.6 km
遠地点 / 近地点 N/A
速度 7.24 km/s
衛星直下点 -24.26°S, 151.65°W
打ち上げ日 Mar 25, 2021
運用期間 5.4 years
タイプ internet

技術仕様

分類 Payload
質量 148.00 kg
乾燥質量 140.00 kg
長さ 1.30 m
直径 1.00 m
スパン 5.00 m
形状 ? Trapezoid+2 pan
製造者 ONEWUS
バスタイプ ARROW
フェーズステータス In Orbit
所有者/国 ONEWEBN/UK

Most Searched